AFL1525 ULLI-UUBC

Flight info

Callsign AFL1525
Flight time 1h 9m
Altitude 35000
Route RUMOL1C RUMOL T272 GILAP/K0826F360 M856 KUGEK/K0822F350 N609 GODBI L736 GITIK GITIK2K
Aircraft A320/M-SDE3FGHIRWY/LB1

Departure

Time 2026-05-04 09:43
Airport Pulkovo Airport (ULLI)

Arrival

Time 2026-05-04 10:52
Airport Grabtsevo Airport (UUBC)
Time Latitude Longitude Altitude Speed Heading
2026-05-04 09:02 59.79892 30.26700 78 ft 0 kts 111°
2026-05-04 09:29 59.79892 30.26695 81 ft 3 kts 112°
2026-05-04 09:29 59.79905 30.26651 86 ft 4 kts 136°
2026-05-04 09:29 59.79926 30.26623 86 ft 4 kts 165°
2026-05-04 09:29 59.79950 30.26617 84 ft 4 kts 190°
2026-05-04 09:30 59.79958 30.26621 87 ft 0 kts 197°
2026-05-04 09:34 59.79627 30.26427 83 ft 15 kts 197°
2026-05-04 09:34 59.79527 30.26368 83 ft 13 kts 197°
2026-05-04 09:34 59.79508 30.26277 84 ft 9 kts 286°
2026-05-04 09:34 59.79531 30.26122 86 ft 14 kts 286°
2026-05-04 09:35 59.79565 30.25894 85 ft 20 kts 287°
2026-05-04 09:35 59.79608 30.25609 85 ft 23 kts 286°
2026-05-04 09:35 59.79655 30.25290 83 ft 25 kts 286°
2026-05-04 09:35 59.79704 30.24946 84 ft 27 kts 287°
2026-05-04 09:37 59.80107 30.22238 75 ft 18 kts 287°
2026-05-04 09:37 59.80105 30.22071 73 ft 9 kts 238°
2026-05-04 09:38 59.80091 30.22038 71 ft 0 kts 226°
2026-05-04 09:42 59.79911 30.22381 84 ft 58 kts 107°
2026-05-04 09:43 59.79728 30.23601 83 ft 122 kts 106°
2026-05-04 09:43 59.79443 30.25510 120 ft 164 kts 108°
2026-05-04 09:43 59.79119 30.27663 772 ft 164 kts 108°
2026-05-04 09:43 59.78791 30.29843 1476 ft 165 kts 111°
2026-05-04 09:44 59.78464 30.32035 2174 ft 166 kts 111°
2026-05-04 09:44 59.78134 30.34243 2846 ft 167 kts 111°
2026-05-04 09:44 59.77803 30.36455 3409 ft 173 kts 111°
2026-05-04 09:46 59.74162 30.59275 7024 ft 296 kts 117°
2026-05-04 09:46 59.73336 30.63059 7882 ft 301 kts 118°
2026-05-04 09:46 59.72489 30.66900 8762 ft 306 kts 118°
2026-05-04 09:47 59.71624 30.70814 9478 ft 314 kts 118°
2026-05-04 09:47 59.70566 30.74567 9693 ft 309 kts 133°
2026-05-04 09:49 59.55460 30.81499 9750 ft 335 kts 184°
2026-05-04 09:49 59.53153 30.81623 9757 ft 335 kts 184°
2026-05-04 09:49 59.50818 30.81746 9754 ft 334 kts 184°
2026-05-04 09:51 59.36879 30.82493 9755 ft 334 kts 184°
2026-05-04 09:51 59.34544 30.82617 9762 ft 336 kts 184°
2026-05-04 09:51 59.32197 30.82737 10360 ft 341 kts 184°
2026-05-04 09:51 59.29820 30.82865 11258 ft 343 kts 184°
2026-05-04 09:52 59.27423 30.82995 12045 ft 346 kts 184°
2026-05-04 09:52 59.25000 30.83121 12832 ft 350 kts 184°
2026-05-04 09:52 59.22546 30.83246 13571 ft 354 kts 184°
2026-05-04 09:52 59.20072 30.83376 14225 ft 358 kts 184°
2026-05-04 09:53 59.17559 30.83510 14870 ft 362 kts 184°
2026-05-04 09:53 59.15024 30.83645 15507 ft 366 kts 184°
2026-05-04 09:53 59.12490 30.83884 16114 ft 374 kts 178°
2026-05-04 09:53 59.09903 30.84970 16754 ft 383 kts 169°
2026-05-04 09:54 59.07338 30.86434 17421 ft 386 kts 169°
2026-05-04 09:54 59.04739 30.87911 18062 ft 390 kts 169°
2026-05-04 09:54 59.02112 30.89397 18619 ft 394 kts 169°
2026-05-04 09:54 58.99501 30.90870 19164 ft 397 kts 169°
2026-05-04 09:55 58.96830 30.92371 19732 ft 401 kts 169°
2026-05-04 09:55 58.94137 30.93878 20297 ft 404 kts 169°
2026-05-04 09:55 58.91419 30.95393 20841 ft 408 kts 169°
2026-05-04 09:55 58.88680 30.96917 21373 ft 411 kts 169°
2026-05-04 09:56 58.85919 30.98453 21892 ft 414 kts 169°
2026-05-04 09:56 58.83135 31.00001 22398 ft 418 kts 169°
2026-05-04 09:56 58.80330 31.01555 22899 ft 421 kts 169°
2026-05-04 09:56 58.78920 31.02233 23133 ft 420 kts 174°
2026-05-04 09:57 58.76033 31.02915 23554 ft 417 kts 183°
2026-05-04 09:57 58.73129 31.03045 23938 ft 418 kts 184°
2026-05-04 09:57 58.70251 31.03167 24320 ft 420 kts 184°
2026-05-04 09:57 58.67287 31.03293 24723 ft 422 kts 184°
2026-05-04 09:58 58.64379 31.03415 25108 ft 424 kts 184°
2026-05-04 09:58 58.61421 31.03539 25484 ft 426 kts 184°
2026-05-04 09:58 58.58445 31.03670 25863 ft 428 kts 184°
2026-05-04 10:00 58.37237 31.04583 28237 ft 442 kts 184°
2026-05-04 10:00 58.34152 31.04717 28535 ft 444 kts 184°
2026-05-04 10:02 58.12271 31.05648 30464 ft 450 kts 184°
2026-05-04 10:04 57.90318 31.06574 32360 ft 451 kts 184°
2026-05-04 10:04 57.87179 31.06696 32634 ft 451 kts 184°
2026-05-04 10:04 57.84037 31.06817 32908 ft 451 kts 184°
2026-05-04 10:04 57.80901 31.06938 33191 ft 451 kts 184°
2026-05-04 10:05 57.77763 31.07011 33456 ft 449 kts 187°
2026-05-04 10:05 57.74681 31.06419 33743 ft 443 kts 196°
2026-05-04 10:05 57.71722 31.05182 33996 ft 441 kts 198°
2026-05-04 10:05 57.68731 31.03872 34227 ft 441 kts 198°
2026-05-04 10:06 57.65745 31.02563 34469 ft 441 kts 198°
2026-05-04 10:06 57.62758 31.01259 34714 ft 441 kts 198°
2026-05-04 10:06 57.59771 30.99962 34798 ft 441 kts 198°
2026-05-04 10:08 57.38845 30.90987 34822 ft 440 kts 197°
2026-05-04 10:08 57.33816 30.89056 34821 ft 441 kts 195°
2026-05-04 10:09 57.27767 30.87020 34823 ft 442 kts 195°
2026-05-04 10:09 57.21718 30.85011 34822 ft 442 kts 195°
2026-05-04 10:10 57.15681 30.82946 34808 ft 441 kts 195°
2026-05-04 10:10 57.09691 30.80863 34817 ft 441 kts 195°
2026-05-04 10:11 57.03667 30.78765 34824 ft 441 kts 195°
2026-05-04 10:11 56.97637 30.76686 34825 ft 441 kts 195°
2026-05-04 10:12 56.91611 30.74628 34827 ft 441 kts 195°
2026-05-04 10:12 56.85533 30.73013 34807 ft 447 kts 184°
2026-05-04 10:13 56.82423 30.73625 34812 ft 454 kts 171°
2026-05-04 10:13 56.79421 30.75503 34815 ft 461 kts 157°
2026-05-04 10:13 56.76681 30.78597 34821 ft 466 kts 144°
2026-05-04 10:13 56.74359 30.82762 34821 ft 471 kts 130°
2026-05-04 10:14 56.70454 30.92390 34822 ft 473 kts 128°
2026-05-04 10:16 56.54693 31.30924 34857 ft 476 kts 128°
2026-05-04 10:16 56.50738 31.40537 34863 ft 476 kts 128°
2026-05-04 10:17 56.46770 31.50132 34874 ft 476 kts 129°
2026-05-04 10:19 56.30877 31.88204 34883 ft 475 kts 129°
2026-05-04 10:19 56.26875 31.97687 34870 ft 475 kts 128°
2026-05-04 10:20 56.22870 32.07145 34873 ft 475 kts 128°
2026-05-04 10:20 56.18861 32.16589 34876 ft 475 kts 129°
2026-05-04 10:21 56.14852 32.25993 34884 ft 475 kts 129°
2026-05-04 10:21 56.10834 32.35386 34886 ft 474 kts 129°
2026-05-04 10:22 56.04799 32.49422 34884 ft 474 kts 129°
2026-05-04 10:23 56.00761 32.58744 34891 ft 474 kts 129°
2026-05-04 10:25 55.84553 32.95846 34889 ft 474 kts 129°
2026-05-04 10:25 55.80329 33.04852 34889 ft 474 kts 131°
2026-05-04 10:26 55.75996 33.13688 34893 ft 474 kts 132°
2026-05-04 10:26 55.71672 33.22536 34891 ft 474 kts 131°
2026-05-04 10:27 55.67389 33.31428 34896 ft 474 kts 130°
2026-05-04 10:27 55.63115 33.40310 34907 ft 474 kts 131°
2026-05-04 10:28 55.58797 33.49129 34910 ft 474 kts 131°
2026-05-04 10:28 55.54453 33.57898 34911 ft 474 kts 131°
2026-05-04 10:29 55.50112 33.66653 34921 ft 474 kts 130°
2026-05-04 10:29 55.45820 33.75469 34921 ft 474 kts 130°
2026-05-04 10:30 55.41575 33.84333 34918 ft 473 kts 129°
2026-05-04 10:30 55.37342 33.93203 34918 ft 473 kts 130°
2026-05-04 10:31 55.33087 34.02042 34919 ft 473 kts 130°
2026-05-04 10:32 55.18136 34.32723 34936 ft 472 kts 130°
2026-05-04 10:33 55.13858 34.41445 34657 ft 472 kts 130°
2026-05-04 10:33 55.11716 34.45792 34411 ft 472 kts 130°
2026-05-04 10:33 55.09571 34.50128 34169 ft 472 kts 130°
2026-05-04 10:34 55.07423 34.54469 33930 ft 473 kts 129°
2026-05-04 10:34 55.05272 34.58813 33654 ft 473 kts 130°
2026-05-04 10:34 55.03117 34.63153 33381 ft 473 kts 130°
2026-05-04 10:34 55.00963 34.67485 33108 ft 473 kts 130°
2026-05-04 10:35 54.98815 34.71811 32834 ft 472 kts 130°
2026-05-04 10:35 54.96671 34.76144 31871 ft 475 kts 130°
2026-05-04 10:35 54.94508 34.80523 30827 ft 477 kts 130°
2026-05-04 10:35 54.92344 34.84911 29628 ft 480 kts 130°
2026-05-04 10:36 54.90196 34.89255 28429 ft 480 kts 130°
2026-05-04 10:36 54.88015 34.93649 27346 ft 479 kts 130°
2026-05-04 10:36 54.85857 34.97975 26750 ft 469 kts 131°
2026-05-04 10:36 54.83732 35.02224 25985 ft 463 kts 131°
2026-05-04 10:37 54.81631 35.06413 25258 ft 458 kts 131°
2026-05-04 10:37 54.79551 35.10564 24545 ft 454 kts 131°
2026-05-04 10:37 54.77512 35.14714 23836 ft 451 kts 128°
2026-05-04 10:37 54.75824 35.19257 23080 ft 447 kts 117°
2026-05-04 10:39 54.73810 35.49802 19466 ft 417 kts 89°
2026-05-04 10:39 54.73811 35.54801 18944 ft 414 kts 89°
2026-05-04 10:39 54.73811 35.59759 18425 ft 410 kts 89°
2026-05-04 10:40 54.73810 35.64676 17871 ft 407 kts 89°
2026-05-04 10:40 54.73808 35.69555 17357 ft 403 kts 89°
2026-05-04 10:40 54.73806 35.74371 16848 ft 398 kts 89°
2026-05-04 10:40 54.73803 35.79140 16327 ft 394 kts 89°
2026-05-04 10:41 54.73796 35.83870 15804 ft 391 kts 89°
2026-05-04 10:41 54.73783 35.88563 15254 ft 389 kts 89°
2026-05-04 10:41 54.73766 35.93230 14716 ft 386 kts 89°
2026-05-04 10:41 54.73749 35.97869 14145 ft 385 kts 89°
2026-05-04 10:42 54.73732 36.02495 13566 ft 384 kts 89°
2026-05-04 10:42 54.73715 36.07105 12963 ft 382 kts 89°
2026-05-04 10:42 54.73694 36.11701 12368 ft 380 kts 89°
2026-05-04 10:42 54.73672 36.16251 11779 ft 377 kts 89°
2026-05-04 10:43 54.73649 36.20778 11188 ft 375 kts 89°
2026-05-04 10:44 54.64977 36.44009 10179 ft 310 kts 137°
2026-05-04 10:45 54.63433 36.46522 9816 ft 308 kts 137°
2026-05-04 10:45 54.61868 36.49072 9420 ft 307 kts 137°
2026-05-04 10:45 54.60322 36.51581 9023 ft 304 kts 139°
2026-05-04 10:45 54.58645 36.53787 8619 ft 302 kts 145°
2026-05-04 10:46 54.56950 36.55895 8207 ft 300 kts 145°
2026-05-04 10:46 54.55261 36.57998 7825 ft 298 kts 145°
2026-05-04 10:46 54.53585 36.60085 7426 ft 297 kts 145°
2026-05-04 10:46 54.51916 36.62163 7018 ft 295 kts 145°
2026-05-04 10:47 54.50244 36.64246 6495 ft 298 kts 145°
2026-05-04 10:47 54.48432 36.65896 5989 ft 295 kts 168°
2026-05-04 10:47 54.46425 36.65889 5484 ft 288 kts 198°
2026-05-04 10:47 54.44723 36.64225 4977 ft 281 kts 227°
2026-05-04 10:49 54.45856 36.48669 1959 ft 218 kts 342°
2026-05-04 10:49 54.47021 36.47319 1955 ft 197 kts 310°
2026-05-04 10:50 54.47954 36.45766 1966 ft 176 kts 321°
2026-05-04 10:51 54.53476 36.38856 800 ft 136 kts 323°
2026-05-04 10:52 54.54239 36.37897 643 ft 134 kts 322°
2026-05-04 10:52 54.54909 36.37050 624 ft 94 kts 324°
2026-05-04 10:52 54.55197 36.36695 613 ft 13 kts 324°
2026-05-04 10:54 54.55476 36.36340 614 ft 20 kts 146°
2026-05-04 10:54 54.55346 36.36505 621 ft 26 kts 144°
2026-05-04 10:56 54.54640 36.37054 620 ft 5 kts 266°
2026-05-04 10:56 54.54652 36.37022 622 ft 0 kts 329°
2026-05-04 10:56 54.54661 36.37013 617 ft 6 kts 328°
2026-05-04 10:57 54.54701 36.36962 618 ft 12 kts 324°
2026-05-04 10:57 54.54726 36.36911 624 ft 3 kts 278°
2026-05-04 10:57 54.54719 36.36885 615 ft 2 kts 229°
2026-05-04 10:57 54.54703 36.36871 627 ft 2 kts 196°
2026-05-04 10:58 54.54691 36.36864 628 ft 1 kts 199°
2026-05-04 10:58 54.54687 36.36862 627 ft 0 kts 199°